H1 CPF 2 NER 2023 7 27 9 208 01 glonass131 H2 1301901 9131 39155 2023 7 27 0 0 0 2023 7 30 23 45 0 900 1 1 0 0 0 1 H9 10 0 60152 0.00000 0 -9812957.184 12370378.395 -20013263.170 10 0 60152 900.00000 0 -12047540.513 13155942.950 -18220577.218 10 0 60152 1800.00000 0 -13991225.513 14016598.921 -16073627.015 10 0 60152 2700.00000 0 -15608390.018 14898931.061 -13614401.488 10 0 60152 3600.00000 0 -16875710.033 15745349.249 -10890886.399 10 0 60152 4500.00000 0 -17782875.790 16496620.104 -7956116.041 10 0 60152 5400.00000 0 -18332770.769 17094477.934 -4867132.855 10 0 60152 6300.00000 0 -18541109.738 17484205.022 -1683875.893 10 0 60152 7200.00000 0 -18435554.225 17617073.154 1531979.913 10 0 60152 8100.00000 0 -18054345.348 17452544.728 4718211.284 10 0 60152 9000.00000 0 -17444513.502 16960142.272 7813238.435 10 0 60152 9900.00000 0 -16659741.383 16120909.382 10757299.105 10 0 60152 10800.00000 0 -15757970.475 14928403.161 13493583.436 10 0 60152 11700.00000 0 -14798851.054 13389177.646 15969309.480 10 0 60152 12600.00000 0 -13841141.565 11522738.511 18136720.472 10 0 60152 13500.00000 0 -12940164.748 9360970.730 19953986.630 10 0 60152 14400.00000 0 -12145425.165 6947062.056 21385996.080 10 0 60152 15300.00000 0 -11498486.006 4333965.380 22405021.331 10 0 60152 16200.00000 0 -11031192.389 1582461.400 22991249.801 10 0 60152 17100.00000 0 -10764314.389 -1241100.932 23133168.945 10 0 60152 18000.00000 0 -10706666.217 -4067295.690 22827798.694 10 0 60152 18900.00000 0 -10854738.806 -6826242.908 22080766.185 10 0 60152 19800.00000 0 -11192862.422 -9450257.372 20906220.080 10 0 60152 20700.00000 0 -11693894.405 -11876415.721 19326584.334 10 0 60152 21600.00000 0 -12320405.577 -14048936.931 17372153.829 10 0 60152 22500.00000 0 -13026318.101 -15921277.974 15080537.143 10 0 60152 23400.00000 0 -13758928.386 -17457857.212 12495954.626 10 0 60152 24300.00000 0 -14461231.884 -18635332.759 9668402.956 10 0 60152 25200.00000 0 -15074453.063 -19443380.804 6652700.353 10 0 60152 26100.00000 0 -15540674.145 -19884939.460 3507429.639 10 0 60152 27000.00000 0 -15805450.856 -19975905.945 293799.017 10 0 60152 27900.00000 0 -15820302.976 -19744298.268 -2925557.144 10 0 60152 28800.00000 0 -15544971.832 -19228915.620 -6087813.219 10 0 60152 29700.00000 0 -14949346.146 -18477553.544 -9131197.251 10 0 60152 30600.00000 0 -14014971.517 -17544849.859 -11996219.635 10 0 60152 31500.00000 0 -12736076.370 -16489853.405 -14626859.076 10 0 60152 32400.00000 0 -11120068.123 -15373420.238 -16971680.275 10 0 60152 33300.00000 0 -9187476.400 -14255549.742 -18984859.300 10 0 60152 34200.00000 0 -6971344.175 -13192775.606 -20627094.685 10 0 60152 35100.00000 0 -4516091.818 -12235724.173 -21866385.068 10 0 60152 36000.00000 0 -1875901.810 -11426945.031 -22678657.426 10 0 60152 36900.00000 0 887307.394 -10799106.569 -23048233.390 10 0 60152 37800.00000 0 3706232.389 -10373632.943 -22968125.008 10 0 60152 38700.00000 0 6510761.189 -10159839.394 -22440155.055 10 0 60152 39600.00000 0 9230666.162 -10154601.092 -21474900.898 10 0 60152 40500.00000 0 11798300.348 -10342567.460 -20091464.602 10 0 60152 41400.00000 0 14151184.523 -10696910.519 -18317075.532 10 0 60152 42300.00000 0 16234377.562 -11180573.090 -16186535.031 10 0 60152 43200.00000 0 18002532.477 -11747961.578 -13741515.751 10 0 60152 44100.00000 0 19421554.356 -12347009.654 -11029730.901 10 0 60152 45000.00000 0 20469793.529 -12921523.917 -8103990.975 10 0 60152 45900.00000 0 21138727.196 -13413711.334 -5021167.419 10 0 60152 46800.00000 0 21433104.287 -13766781.292 -1841084.082 10 0 60152 47700.00000 0 21370550.728 -13927512.636 1374641.597 10 0 60152 48600.00000 0 20980654.579 -13848678.200 4563785.319 10 0 60152 49500.00000 0 20303571.811 -13491225.846 7664708.065 10 0 60152 50400.00000 0 19388212.825 -12826125.672 10617531.498 10 0 60152 51300.00000 0 18290086.577 -11835807.145 13365275.253 10 0 60152 52200.00000 0 17068892.641 -10515127.050 15854935.829 10 0 60152 53100.00000 0 15785961.259 -8871828.433 18038488.128 10 0 60152 54000.00000 0 14501647.076 -6926471.419 19873792.338 10 0 60152 54900.00000 0 13272783.684 -4711838.108 21325390.650 10 0 60152 55800.00000 0 12150303.317 -2271834.872 22365180.118 10 0 60152 56700.00000 0 11177119.184 340064.516 22972950.091 10 0 60152 57600.00000 0 10386357.286 3062773.097 23136774.650 10 0 60152 58500.00000 0 9800010.518 5829864.367 22853252.653 10 0 60152 59400.00000 0 9428071.027 8572074.410 22127590.266 10 0 60152 60300.00000 0 9268177.540 11219931.938 20973523.174 10 0 60152 61200.00000 0 9305793.668 13706409.822 19413078.170 10 0 60152 62100.00000 0 9514911.517 15969490.054 17476176.453 10 0 60152 63000.00000 0 9859253.304 17954536.724 15200083.730 10 0 60152 63900.00000 0 10293922.727 19616378.399 12628715.145 10 0 60152 64800.00000 0 10767438.633 20921012.430 9811806.069 10 0 60152 65700.00000 0 11224066.749 21846858.573 6803962.787 10 0 60152 66600.00000 0 11606351.776 22385507.482 3663610.103 10 0 60152 67500.00000 0 11857742.578 22541930.564 451855.634 10 0 60152 68400.00000 0 11925198.244 22334140.355 -2768707.022 10 0 60152 69300.00000 0 11761662.597 21792314.030 -5935232.044 10 0 60152 70200.00000 0 11328299.571 20957416.103 -8985866.460 10 0 60152 71100.00000 0 10596391.613 19879378.184 -11860980.250 10 0 60152 72000.00000 0 9548817.356 18614913.184 -14504355.011 10 0 60152 72900.00000 0 8181042.998 17225057.781 -16864305.634 10 0 60152 73800.00000 0 6501582.703 15772548.626 -18894710.738 10 0 60152 74700.00000 0 4531906.662 14319145.427 -20555929.844 10 0 60152 75600.00000 0 2305799.550 12923016.170 -21815587.992 10 0 60152 76500.00000 0 -131804.136 11636296.481 -22649211.592 10 0 60152 77400.00000 0 -2726458.612 10502927.469 -23040702.899 10 0 60152 78300.00000 0 -5416249.686 9556863.643 -22982644.227 10 0 60152 79200.00000 0 -8134155.319 8820726.144 -22476426.881 10 0 60152 80100.00000 0 -10810623.930 8304956.795 -21532203.583 10 0 60152 81000.00000 0 -13376261.740 8007506.691 -20168666.953 10 0 60152 81900.00000 0 -15764516.377 7914069.866 -18412660.120 10 0 60152 82800.00000 0 -17914244.698 7998849.338 -16298628.877 10 0 60152 83700.00000 0 -19772058.362 8225820.214 -13867927.848 10 0 60152 84600.00000 0 -21294350.636 8550433.772 -11167995.736 10 0 60152 85500.00000 0 -22448921.814 8921688.186 -8251417.173 10 0 60153 0.00000 0 -23216137.871 9284476.605 -5174890.762 10 0 60153 900.00000 0 -23589577.176 9582112.503 -1998122.444 10 0 60153 1800.00000 0 -23576140.302 9758924.772 1217329.744 10 0 60153 2700.00000 0 -23195622.591 9762813.982 4409242.684 10 0 60153 3600.00000 0 -22479768.803 9547662.322 7515920.362 10 0 60153 4500.00000 0 -21470851.794 9075497.103 10477370.650 10 0 60153 5400.00000 0 -20219835.867 8318318.150 13236444.991 10 0 60153 6300.00000 0 -18784201.943 7259513.560 15739920.634 10 0 60153 7200.00000 0 -17225525.073 5894805.422 17939506.404 10 0 60153 8100.00000 0 -15606904.308 4232686.308 19792754.591 10 0 60153 9000.00000 0 -13990350.460 2294327.958 21263863.377 10 0 60153 9900.00000 0 -12434238.685 112964.907 22324356.038 10 0 60153 10800.00000 0 -10990929.906 -2267223.201 22953625.211 10 0 60153 11700.00000 0 -9704658.246 -4792686.735 23139332.605 10 0 60153 12600.00000 0 -8609770.998 -7402476.273 22877656.617 10 0 60153 13500.00000 0 -7729393.565 -10030529.490 22173382.654 10 0 60153 14400.00000 0 -7074574.883 -12608183.157 21039833.203 10 0 60153 15300.00000 0 -6643949.580 -15066808.985 19498637.251 10 0 60153 16200.00000 0 -6423932.228 -17340466.223 17579341.241 10 0 60153 17100.00000 0 -6389437.266 -19368462.329 15318866.517 10 0 60153 18000.00000 0 -6505096.367 -21097715.700 12760821.136 10 0 60153 18900.00000 0 -6726924.003 -22484821.586 9954676.948 10 0 60153 19800.00000 0 -7004362.643 -23497733.696 6954825.797 10 0 60153 20700.00000 0 -7282622.271 -24116989.181 3819531.741 10 0 60153 21600.00000 0 -7505215.522 -24336423.352 609798.923 10 0 60153 22500.00000 0 -7616580.447 -24163341.739 -2611822.858 10 0 60153 23400.00000 0 -7564678.154 -23618140.081 -5782470.699 10 0 60153 24300.00000 0 -7303452.840 -22733386.743 -8840213.775 10 0 60153 25200.00000 0 -6795046.974 -21552405.328 -11725284.825 10 0 60153 26100.00000 0 -6011674.510 -20127417.278 -14381271.486 10 0 60153 27000.00000 0 -4937069.557 -18517323.529 -16756241.817 10 0 60153 27900.00000 0 -3567446.293 -16785220.268 -18803779.713 10 0 60153 28800.00000 0 -1911927.227 -14995755.601 -20483908.085 10 0 60153 29700.00000 0 7579.905 -13212440.544 -21763880.303 10 0 60153 30600.00000 0 2157052.266 -11495029.574 -22618823.615 10 0 60153 31500.00000 0 4491540.966 -9897082.561 -23032221.725 10 0 60153 32400.00000 0 6956828.595 -8463811.415 -22996227.467 10 0 60153 33300.00000 0 9491484.767 -7230302.038 -22511800.364 10 0 60153 34200.00000 0 12029232.375 -6220185.455 -21588667.671 10 0 60153 35100.00000 0 14501524.409 -5444812.232 -20245111.276 10 0 60153 36000.00000 0 16840222.728 -4902962.403 -18507586.343 10 0 60153 36900.00000 0 18980266.362 -4581100.124 -16410180.985 10 0 60153 37800.00000 0 20862218.013 -4454159.040 -13993929.248 10 0 60153 38700.00000 0 22434583.202 -4486822.037 -11305992.419 10 0 60153 39600.00000 0 23655806.563 -4635238.411 -8398726.002 10 0 60153 40500.00000 0 24495863.907 -4849103.561 -5328651.652 10 0 60153 41400.00000 0 24937385.970 -5074011.577 -2155354.786 10 0 60153 42300.00000 0 24976269.550 -5253980.400 1059670.278 10 0 60153 43200.00000 0 24621753.200 -5334042.637 4254205.308 10 0 60153 44100.00000 0 23895956.813 -5262793.143 7366500.786 10 0 60153 45000.00000 0 22832906.384 -4994786.889 10336453.946 10 0 60153 45900.00000 0 21477086.160 -4492687.384 13106750.769 10 0 60153 46800.00000 0 19881579.277 -3729076.663 15623951.521 10 0 60153 47700.00000 0 18105874.411 -2687851.964 17839500.706 10 0 60153 48600.00000 0 16213428.977 -1365151.332 19710643.984 10 0 60153 49500.00000 0 14269088.888 230230.515 21201236.337 10 0 60153 50400.00000 0 12336470.281 2076954.012 22282427.615 10 0 60153 51300.00000 0 10475409.924 4141771.116 22933213.681 10 0 60153 52200.00000 0 8739588.113 6380661.903 23140843.395 10 0 60153 53100.00000 0 7174420.996 8740426.989 22901073.829 10 0 60153 54000.00000 0 5815308.592 11160672.839 22218268.373 10 0 60153 54900.00000 0 4686310.613 13576110.908 21105334.697 10 0 60153 55800.00000 0 3799305.283 15919078.251 19583502.032 10 0 60153 56700.00000 0 3153666.871 18122177.590 17681939.822 10 0 60153 57600.00000 0 2736476.699 20120928.961 15437222.552 10 0 60153 58500.00000 0 2523260.422 21856323.538 12892648.519 10 0 60153 59400.00000 0 2479222.399 23277173.123 10097423.227 10 0 60153 60300.00000 0 2560926.848 24342156.218 7105721.157 10 0 60153 61200.00000 0 2718356.084 25021473.239 3975642.649 10 0 60153 62100.00000 0 2897259.437 25298039.153 768085.404 10 0 60153 63000.00000 0 3041693.173 25168160.767 -2454447.454 10 0 60153 63900.00000 0 3096642.636 24641667.736 -5629078.675 10 0 60153 64800.00000 0 3010613.496 23741489.579 -8693802.104 10 0 60153 65700.00000 0 2738079.546 22502694.952 -11588715.463 10 0 60153 66600.00000 0 2241680.220 20971033.059 -14257214.330 10 0 60153 67500.00000 0 1494071.470 19201038.677 -16647121.482 10 0 60153 68400.00000 0 479348.594 17253781.617 -18711727.324 10 0 60153 69300.00000 0 -806021.774 15194357.017 -20410719.063 10 0 60153 70200.00000 0 -2352801.837 13089223.972 -21710979.033 10 0 60153 71100.00000 0 -4139133.030 11003506.398 -22587235.697 10 0 60153 72000.00000 0 -6131230.748 8998371.194 -23022554.312 10 0 60153 72900.00000 0 -8284593.930 7128594.975 -23008658.045 10 0 60153 73800.00000 0 -10545677.876 5440421.887 -22546074.120 10 0 60153 74700.00000 0 -12853958.962 3969801.890 -21644103.453 10 0 60153 75600.00000 0 -15144303.460 2741082.018 -20320615.935 10 0 60153 76500.00000 0 -17349540.127 1766203.254 -18601677.133 10 0 60153 77400.00000 0 -19403128.047 1044433.868 -16521015.519 10 0 60153 78300.00000 0 -21241807.777 562647.004 -14119342.347 10 0 60153 79200.00000 0 -22808125.173 296127.334 -11443539.093 10 0 60153 80100.00000 0 -24052723.176 209869.380 -8545729.653 10 0 60153 81000.00000 0 -24936307.165 260309.766 -5482256.511 10 0 60153 81900.00000 0 -25431203.650 397417.908 -2312581.520 10 0 60153 82800.00000 0 -25522449.379 567055.235 901866.896 10 0 60153 83700.00000 0 -25208367.757 713502.484 4098877.791 10 0 60153 84600.00000 0 -24500610.809 782048.341 7216650.492 10 0 60153 85500.00000 0 -23423666.996 721530.811 10194973.902 10 0 60154 0.00000 0 -22013857.098 486725.341 12976370.536 10 0 60154 900.00000 0 -20317860.127 40480.347 15507186.286 10 0 60154 1800.00000 0 -18390832.802 -644487.912 17738603.037 10 0 60154 2700.00000 0 -16294197.752 -1584215.783 19627561.553 10 0 60154 3600.00000 0 -14093192.905 -2782584.934 21137575.059 10 0 60154 4500.00000 0 -11854281.350 -4230925.496 22239421.108 10 0 60154 5400.00000 0 -9642527.096 -5908147.105 22911699.557 10 0 60154 6300.00000 0 -7519043.268 -7781394.110 23141246.827 10 0 60154 7200.00000 0 -5538616.459 -9807200.097 22923398.711 10 0 60154 8100.00000 0 -3747604.011 -11933096.694 22262096.295 10 0 60154 9000.00000 0 -2182190.277 -14099613.044 21169831.816 10 0 60154 9900.00000 0 -867073.843 -16242586.040 19667433.814 10 0 60154 10800.00000 0 185359.499 -18295688.136 17783693.490 10 0 60154 11700.00000 0 975342.719 -20193069.839 15554836.930 10 0 60154 12600.00000 0 1515498.332 -21872008.135 13023850.823 10 0 60154 13500.00000 0 1830082.028 -23275450.780 10239672.208 10 0 60154 14400.00000 0 1953729.330 -24354349.518 7256255.842 10 0 60154 15300.00000 0 1929756.678 -25069682.985 4131535.799 10 0 60154 16200.00000 0 1808087.865 -25394082.188 926300.636 10 0 60154 17100.00000 0 1642893.338 -25312987.566 -2296996.009 10 0 60154 18000.00000 0 1490043.056 -24825286.083 -5475465.438 10 0 60154 18900.00000 0 1404482.402 -23943398.815 -8547029.051 10 0 60154 19800.00000 0 1437644.735 -22692813.396 -11451652.473 10 0 60154 20700.00000 0 1635013.066 -21111079.441 -14132542.075 10 0 60154 21600.00000 0 2033937.305 -19246308.607 -16537278.094 10 0 60154 22500.00000 0 2661802.663 -17155242.949 -18618859.964 10 0 60154 23400.00000 0 3534629.446 -14900973.820 -20336641.414 10 0 60154 24300.00000 0 4656165.614 -12550408.842 -21657135.570 10 0 60154 25200.00000 0 6017511.925 -10171595.137 -22554673.465 10 0 60154 26100.00000 0 7597296.153 -7831012.907 -23011902.749 10 0 60154 27000.00000 0 9362389.011 -5590954.225 -23020117.232 10 0 60154 27900.00000 0 11269131.018 -3507097.609 -22579411.636 10 0 60154 28800.00000 0 13265017.594 -1626379.930 -21698659.841 10 0 60154 29700.00000 0 15290770.302 14746.212 -20395318.596 10 0 60154 30600.00000 0 17282705.981 1391598.532 -18695062.305 10 0 60154 31500.00000 0 19175303.241 2492043.254 -16631257.810 10 0 60154 32400.00000 0 20903857.993 3316736.084 -14244291.203 10 0 60154 33300.00000 0 22407116.500 3878819.484 -11580761.387 10 0 60154 34200.00000 0 23629775.957 4203092.607 -8692557.551 10 0 60154 35100.00000 0 24524748.804 4324692.303 -5635839.614 10 0 60154 36000.00000 0 25055097.399 4287343.713 -2469942.285 10 0 60154 36900.00000 0 25195559.934 4141256.500 743775.576 10 0 60154 37800.00000 0 24933605.816 3940756.922 3943113.918 10 0 60154 38700.00000 0 24269978.511 3741756.270 7066224.350 10 0 60154 39600.00000 0 23218705.107 3599162.297 10052790.581 10 0 60154 40500.00000 0 21806573.727 3564341.930 12845174.901 10 0 60154 41400.00000 0 20072101.586 3682740.859 15389510.176 10 0 60154 42300.00000 0 18064036.955 3991758.690 17636718.075 10 0 60154 43200.00000 0 15839456.938 4518967.536 19543435.916 10 0 60154 44100.00000 0 13461538.921 5280747.736 21072836.187 10 0 60154 45000.00000 0 10997096.442 6281397.388 22195324.745 10 0 60154 45900.00000 0 8513979.441 7512753.215 22889105.640 10 0 60154 46800.00000 0 6078444.169 8954339.716 23140602.652 10 0 60154 47700.00000 0 3752599.317 10574042.275 22944729.686 10 0 60154 48600.00000 0 1592032.018 12329278.761 22305004.493 10 0 60154 49500.00000 0 -356289.552 14168623.855 21233502.445 10 0 60154 50400.00000 0 -2055750.925 16033821.647 19750649.558 10 0 60154 51300.00000 0 -3481391.693 17862105.725 17884856.594 10 0 60154 52200.00000 0 -4620716.913 19588732.645 15671998.745 10 0 60154 53100.00000 0 -5473984.699 21149624.866 13154748.358 10 0 60154 54000.00000 0 -6053956.591 22484013.657 10381771.098 10 0 60154 54900.00000 0 -6385119.577 23536971.237 7406798.987 10 0 60154 55800.00000 0 -6502411.025 24261724.855 4287596.758 10 0 60154 56700.00000 0 -6449499.166 24621653.625 1084840.758 10 0 60154 57600.00000 0 -6276691.266 24591881.519 -2139067.873 10 0 60154 58500.00000 0 -6038558.235 24160396.407 -5321231.854 10 0 60154 59400.00000 0 -5791377.401 23328645.039 -8399502.879 10 0 60154 60300.00000 0 -5590503.690 22111576.210 -11313716.926 10 0 60154 61200.00000 0 -5487783.150 20537128.196 -14006893.288 10 0 60154 62100.00000 0 -5529121.343 18645180.860 -16426371.480 10 0 60154 63000.00000 0 -5752312.572 16486015.944 -18524861.446 10 0 60154 63900.00000 0 -6185224.699 14118350.871 -20261384.547 10 0 60154 64800.00000 0 -6844418.683 11607029.940 -21602085.492 10 0 60154 65700.00000 0 -7734262.808 9020471.173 -22520898.350 10 0 60154 66600.00000 0 -8846579.915 6427977.633 -23000053.314 10 0 60154 67500.00000 0 -10160842.655 3897027.332 -23030414.639 10 0 60154 68400.00000 0 -11644907.985 1490656.198 -22611643.994 10 0 60154 69300.00000 0 -13256258.869 -734956.051 -21752187.269 10 0 60154 70200.00000 0 -14943699.502 -2732596.672 -20469086.718 10 0 60154 71100.00000 0 -16649431.255 -4465740.435 -18787623.828 10 0 60154 72000.00000 0 -18311420.614 -5909810.157 -16740801.708 10 0 60154 72900.00000 0 -19865958.529 -7052927.444 -14368678.884 10 0 60154 73800.00000 0 -21250303.006 -7896125.652 -11717569.089 10 0 60154 74700.00000 0 -22405293.836 -8453019.849 -8839124.066 10 0 60154 75600.00000 0 -23277830.188 -8748951.335 -5789318.400 10 0 60154 76500.00000 0 -23823108.108 -8819646.057 -2627356.871 10 0 60154 77400.00000 0 -24006525.537 -8709446.196 585473.945 10 0 60154 78300.00000 0 -23805176.767 -8469191.479 3786987.567 10 0 60154 79200.00000 0 -23208875.664 -8153840.721 6915290.477 10 0 60154 80100.00000 0 -22220666.609 -7819934.178 9909963.678 10 0 60154 81000.00000 0 -20856803.368 -7523003.222 12713211.353 10 0 60154 81900.00000 0 -19146197.765 -7315035.335 15270956.005 10 0 60154 82800.00000 0 -17129361.559 -7242099.644 17533860.767 10 0 60154 83700.00000 0 -14856885.252 -7342231.193 19458261.137 10 0 60154 84600.00000 0 -12387515.969 -7643661.314 21006990.159 10 0 60154 85500.00000 0 -9785912.519 -8163467.293 22150082.904 10 0 60155 0.00000 0 -7120168.664 -8906697.375 22865348.096 10 0 60155 900.00000 0 -4459203.209 -9866008.561 23138797.150 10 0 60155 1800.00000 0 -1870125.859 -11021832.521 22964921.798 10 0 60155 2700.00000 0 584319.300 -12343066.008 22346815.948 10 0 60155 3600.00000 0 2848125.398 -13788258.660 21296137.301 10 0 60155 4500.00000 0 4874114.003 -15307251.960 19832908.303 10 0 60155 5400.00000 0 6625659.719 -16843203.958 17985157.976 10 0 60155 6300.00000 0 8077976.467 -18334917.970 15788409.058 10 0 60155 7200.00000 0 9218911.135 -19719380.130 13285017.722 10 0 60155 8100.00000 0 10049210.277 -20934400.937 10523376.152 10 0 60155 9000.00000 0 10582247.132 -21921250.516 7556991.249 10 0 60155 9900.00000 0 10843218.848 -22627176.265 4443455.786 10 0 60155 10800.00000 0 10867846.368 -23007695.443 1243331.080 10 0 60155 11700.00000 0 10700630.935 -23028563.751 -1981037.178 10 0 60155 12600.00000 0 10392740.670 -22667333.932 -5166746.141 10 0 60155 13500.00000 0 9999617.341 -21914435.517 -8251580.780 10 0 60155 14400.00000 0 9578406.042 -20773727.103 -11175250.381 10 0 60155 15300.00000 0 9185318.787 -19262495.222 -13880590.019 10 0 60155 16200.00000 0 8873046.342 -17410897.888 -16314701.137 10 0 60155 17100.00000 0 8688330.723 -15260875.092 -18430006.586 10 0 60155 18000.00000 0 8669803.994 -12864571.992 -20185197.473 10 0 60155 18900.00000 0 8846187.156 -10282341.498 -21546051.795 10 0 60155 19800.00000 0 9234927.103 -7580411.295 -22486107.900 10 0 60155 20700.00000 0 9841330.295 -4828314.583 -22987179.270 10 0 60155 21600.00000 0 10658229.966 -2096193.542 -23039700.849 10 0 60155 22500.00000 0 11666200.446 547910.443 -22642900.971 10 0 60155 23400.00000 0 12834308.436 3040665.771 -21804796.794 10 0 60155 24300.00000 0 14121368.027 5325849.905 -20542014.883 10 0 60155 25200.00000 0 15477644.843 7356439.562 -18879442.200 10 0 60155 26100.00000 0 16846935.772 9096306.174 -16849716.131 10 0 60155 27000.00000 0 18168935.222 10521448.282 -14492565.280 10 0 60155 27900.00000 0 19381787.187 11620712.428 -11854015.499 10 0 60155 28800.00000 0 20424715.106 12395975.912 -8985478.074 10 0 60155 29700.00000 0 21240618.920 12861787.478 -5942738.975 10 0 60155 30600.00000 0 21778530.631 13044484.574 -2784869.602 10 0 60155 31500.00000 0 21995826.298 12980827.468 426919.295 10 0 60155 32400.00000 0 21860102.982 12716210.214 3630458.296 10 0 60155 33300.00000 0 21350643.608 12302525.493 6763812.091 10 0 60155 34200.00000 0 20459409.989 11795774.108 9766462.059 10 0 60155 35100.00000 0 19191523.947 11253519.766 12580457.010 10 0 60155 36000.00000 0 17565217.497 10732295.503 15151511.442 10 0 60155 36900.00000 0 15611254.646 10285069.511 17430031.895 10 0 60155 37800.00000 0 13371848.735 9958875.175 19372053.588 10 0 60155 38700.00000 0 10899119.398 9792703.102 20940071.254 10 0 60155 39600.00000 0 8253151.607 9815742.028 22103749.929 10 0 60155 40500.00000 0 5499735.059 10046041.274 22840503.461 10 0 60155 41400.00000 0 2707874.900 10489650.411 23135930.610 10 0 60155 42300.00000 0 -52826.002 11140272.568 22984100.667 10 0 60155 43200.00000 0 -2714807.643 11979447.176 22387682.837 10 0 60155 44100.00000 0 -5215109.536 12977256.534 21357915.872 10 0 60155 45000.00000 0 -7497739.375 14093529.237 19914416.927 10 0 60155 45900.00000 0 -9515756.715 15279493.024 18084831.183 10 0 60155 46800.00000 0 -11232985.538 16479810.692 15904326.471 10 0 60155 47700.00000 0 -12625284.047 17634916.291 13414940.072 10 0 60155 48600.00000 0 -13681317.714 18683555.421 10664787.778 10 0 60155 49500.00000 0 -14402801.804 19565423.871 7707148.359 10 0 60155 50400.00000 0 -14804201.477 20223793.564 4599439.569 10 0 60155 51300.00000 0 -14911900.514 20608014.064 1402104.660 10 0 60155 52200.00000 0 -14762872.383 20675782.140 -1822569.088 10 0 60155 53100.00000 0 -14402909.127 20395080.822 -5011676.140 10 0 60155 54000.00000 0 -13884483.023 19745702.917 -8102937.498 10 0 60155 54900.00000 0 -13264332.346 18720291.293 -11035938.288 10 0 60155 55800.00000 0 -12600875.198 17324849.075 -13753331.661 10 0 60155 56700.00000 0 -11951563.075 15578695.620 -16201982.997 10 0 60155 57600.00000 0 -11370288.826 13513868.348 -18334029.721 10 0 60155 58500.00000 0 -10904961.471 11173994.777 -20107833.982 10 0 60155 59400.00000 0 -10595352.849 8612682.114 -21488807.998 10 0 60155 60300.00000 0 -10471309.061 5891492.661 -22450094.986 10 0 60155 61200.00000 0 -10551403.443 3077591.032 -22973091.935 10 0 60155 62100.00000 0 -10842088.377 241163.103 -23047804.327 10 0 60155 63000.00000 0 -11337381.319 -2547284.080 -22673026.650 10 0 60155 63900.00000 0 -12019097.157 -5219627.595 -21856346.419 10 0 60155 64800.00000 0 -12857615.428 -7712725.790 -20613973.219 10 0 60155 65700.00000 0 -13813148.036 -9970799.210 -18970397.821 10 0 60155 66600.00000 0 -14837451.911 -11947497.038 -16957889.881 10 0 60155 67500.00000 0 -15875912.462 -13607564.713 -14615845.793 10 0 60155 68400.00000 0 -16869908.365 -14928045.742 -11990001.024 10 0 60155 69300.00000 0 -17759356.897 -15898970.620 -9131523.770 10 0 60155 70200.00000 0 -18485332.026 -16523507.568 -6096008.676 10 0 60155 71100.00000 0 -18992645.029 -16817572.349 -2942391.049 10 0 60155 72000.00000 0 -19232279.634 -16808916.891 268196.886 10 0 60155 72900.00000 0 -19163580.363 -16535737.844 3473605.422 10 0 60155 73800.00000 0 -18756103.501 -16044865.768 6611860.057 10 0 60155 74700.00000 0 -17991054.534 -15389612.396 9622345.063 10 0 60155 75600.00000 0 -16862253.238 -14627367.004 12446956.288 10 0 60155 76500.00000 0 -15376587.139 -13817042.534 15031202.479 10 0 60155 77400.00000 0 -13553935.054 -13016477.706 17325235.618 10 0 60155 78300.00000 0 -11426563.852 -12279902.596 19284792.415 10 0 60155 79200.00000 0 -9038022.802 -11655572.139 20872030.740 10 0 60155 80100.00000 0 -6441579.985 -11183664.907 22056246.685 10 0 60155 81000.00000 0 -3698263.495 -10894533.605 22814459.908 10 0 60155 81900.00000 0 -874585.932 -10807379.489 23131857.015 10 0 60155 82800.00000 0 1959956.514 -10929405.855 23002084.813 10 0 60155 83700.00000 0 4735509.894 -11255486.518 22427387.539 10 0 60155 84600.00000 0 7384507.368 -11768364.434 21418584.460 10 0 60155 85500.00000 0 9844225.828 -12439374.155 19994886.662 99